Simultaneous Nadir Overpasses (SNOs) Predictions

Prediction of SNOs between NOAA-20 and LANDSAT-8 Satellite Orbit:

Table of predicted SNOs for the next 14.0 days since TLE Epoch: 3/30/2024
Index Date (NOAA-20) Time (NOAA-20) Lat,Lon (NOAA-20) SZA (NOAA-20 ) Date (LANDSAT-8) Time (LANDSAT-8) Lat,Lon (LANDSAT-8) SZA (LANDSAT-8 ) Distance(km) Time Diff (sec)
1 04/01/2024 02:37:19 70.27, 136.92 65.54 04/01/2024 02:38:23 70.25, 136.89 65.52 2.08 64
2 04/01/2024 03:28:00 -70.17, -55.60 114.58 04/01/2024 03:27:53 -70.14, -55.64 114.61 2.98 7
3 04/01/2024 04:18:34 69.87, 112.19 65.10 04/01/2024 04:17:22 69.93, 111.71 65.18 19.59 72
4 04/03/2024 21:21:54 -70.89, 34.83 114.89 04/03/2024 21:23:03 -70.79, 36.47 115.04 60.87 69
5 04/03/2024 22:12:21 70.22,-156.76 64.41 04/03/2024 22:12:39 70.19,-156.77 64.37 3.16 18
6 04/03/2024 23:03:01 -70.07, 10.79 115.77 04/03/2024 23:02:09 -70.08, 10.71 115.75 3.36 52
7 04/06/2024 16:56:43 -70.23, 102.12 116.64 04/06/2024 16:57:26 -70.25, 102.10 116.64 1.75 43
8 04/06/2024 17:47:21 70.13, -90.39 63.24 04/06/2024 17:46:53 70.13, -90.41 63.25 1.01 28
9 04/06/2024 18:37:45 -69.14, 78.38 117.80 04/06/2024 18:36:39 -69.15, 75.88 117.71 99.01 66
10 04/09/2024 11:41:04 70.30, 0.94 62.39 04/09/2024 11:42:10 70.30, 0.98 62.38 1.72 66
11 04/09/2024 12:31:44 -70.17, 168.46 117.77 04/09/2024 12:31:40 -70.20, 168.47 117.74 2.85 4
12 04/09/2024 13:22:21 70.00, -23.95 62.06 04/09/2024 13:21:08 70.02, -24.13 62.09 7.05 73
13 04/12/2024 06:25:39 -70.99,-101.28 117.92 04/12/2024 06:26:47 -70.86, -99.38 118.11 70.41 68
14 04/12/2024 07:16:04 70.19, 67.35 61.23 04/12/2024 07:16:24 70.19, 67.28 61.24 3.05 20
15 04/12/2024 08:06:45 -70.12,-125.23 118.85 04/12/2024 08:05:54 -70.09,-125.23 118.88 3.42 51



Historial Predications of SNOs between NOAA-20 and LANDSAT-8
